Simultaneous Nadir Overpasses (SNOs) Predictions

Prediction of SNOs between METOP-B and TERRA Satellite Orbit:

Table of predicted SNOs for the next 14.0 days since TLE Epoch: 7/4/2020
Index Date (METOP-B) Time (METOP-B) Lat,Lon (METOP-B) SZA (METOP-B ) Date (TERRA) Time (TERRA) Lat,Lon (TERRA) SZA (TERRA ) Distance(km) Time Diff (sec)
1 07/05/2020 20:46:28 81.32, -83.92 61.49 07/05/2020 20:47:22 81.33, -83.96 61.51 0.97 54
2 07/05/2020 21:37:09 -81.32, 83.46 118.51 07/05/2020 21:36:49 -81.33, 83.61 118.50 2.54 20
3 07/08/2020 16:20:49 81.32, -17.43 61.79 07/08/2020 16:21:37 81.33, -17.57 61.80 2.31 48
4 07/08/2020 17:11:30 -81.33, 149.95 118.20 07/08/2020 17:11:04 -81.32, 150.03 118.20 1.31 26
5 07/11/2020 11:55:11 81.32, 48.65 62.10 07/11/2020 11:55:52 81.32, 48.80 62.14 2.48 41
6 07/11/2020 12:45:51 -81.33,-143.57 117.84 07/11/2020 12:45:19 -81.32,-143.58 117.86 0.45 32
7 07/14/2020 07:29:31 81.32, 115.11 62.51 07/14/2020 07:30:06 81.32, 115.13 62.52 0.54 35
8 07/14/2020 08:20:11 -81.33, -77.10 117.44 07/14/2020 08:19:33 -81.32, -77.21 117.47 2.07 38
9 07/17/2020 03:03:51 81.33,-178.04 63.01 07/17/2020 03:04:20 81.33,-178.17 63.01 2.21 29
